Flag for Germany Weather past 2 weeks in Göttingen, Lower Saxony, Germany

Now
61 °F

Sunny.


Feels Like: 61 °F
Forecast: 51 / 81 °F
Wind: 5 mph from Northwest

Location: Kassel / Calden

Current Time: Jul 25, 2014 at 10:51:14 PM

Latest Report: Jul 25, 2014 at 9:50 PM


Visibility: 10 mi

Pressure: 29.95 "Hg

Humidity: 100%

Dew point: 61 °F

Location of GöttingenLocation

Historic Weather in Göttingen — Graph

°F

Göttingen temperature yesterday

Maximum temperature yesterday: 75 °F (at 2:20 PM)
Minimum temperature yesterday: 57 °F (at 6:50 AM)
Average temperature yesterday: 67 °F

Past Weeks' High & Low Weather Summary

 TemperatureHumidityPressure
High90 °F (Jul 19, 4:50 PM)100% (Jul 10, 10:50 PM)30.21 "Hg (Jul 10, 10:50 PM)
Low55 °F (Jul 12, 5:50 AM)31% (Jul 19, 1:20 PM)29.74 "Hg (Jul 13, 4:50 PM)
Average70 °F69%29.99 "Hg
* Reported Jul 10 9:20 PM — Jul 25 9:20 PM, Göttingen, Weather by CustomWeather, © 2014

Note: Actual official high and low records may vary slightly from our data, if they occured in-between our weather recording intervals... More about our weather records

Advertising

Göttingen weather history for previous 24 hours

 ConditionsComfort  
Time TempWeatherWind HumidityBarometerVisibility
9:20 PM
Jul 25
63 °FSunny.5 mph94%29.95 "Hg10 mi
8:50 PM64 °FPassing clouds.6 mph88%29.92 "HgN/A
8:20 PM66 °FPassing clouds.6 mph83%29.92 "HgN/A
7:50 PM66 °FScattered clouds.7 mph83%29.92 "HgN/A
7:20 PM68 °FScattered clouds.9 mph78%29.92 "HgN/A
6:50 PM68 °FScattered clouds.7 mph78%29.95 "HgN/A
6:20 PM68 °FScattered clouds.8 mph78%29.95 "HgN/A
5:50 PM66 °FPartly sunny.9 mph83%29.95 "HgN/A
5:20 PM66 °FPartly sunny.10 mph83%29.95 "HgN/A
4:50 PM66 °FPartly sunny.7 mph83%29.95 "HgN/A
4:20 PM66 °FScattered showers. Broken clouds.8 mph88%29.95 "HgN/A
3:50 PM66 °FBroken clouds.5 mph83%29.95 "HgN/A
3:20 PM66 °FBroken clouds.3 mph78%29.95 "HgN/A
2:20 PM66 °FPartly sunny.2 mph83%29.98 "HgN/A
1:50 PM66 °FPartly sunny.3 mph78%29.98 "Hg6 mi
1:20 PM64 °FPartly sunny.2 mph83%29.98 "Hg6 mi
12:50 PM64 °FPartly sunny.3 mph83%29.98 "Hg6 mi
12:20 PM64 °FPartly sunny.3 mph88%29.98 "Hg5 mi
11:50 AM63 °FPartly sunny.3 mph88%29.98 "Hg5 mi
11:20 AM61 °FPartly sunny.3 mph94%29.98 "Hg5 mi
10:50 AM61 °FPartly sunny.3 mph94%29.98 "Hg4 mi
10:20 AM61 °FBroken clouds.3 mph94%29.98 "Hg4 mi
9:50 AM61 °FPartly sunny.3 mph94%29.98 "Hg4 mi
9:20 AM61 °FPartly sunny.3 mph94%29.98 "Hg5 mi
8:50 AM61 °FDrizzle. Partly sunny.5 mph94%29.98 "Hg4 mi
8:20 AM61 °FPartly sunny.5 mph94%29.98 "Hg4 mi
7:20 AM59 °FPartly sunny.3 mph100%29.98 "Hg6 mi
6:50 AM59 °FPartly sunny.2 mph94%29.98 "HgN/A
6:20 AM59 °FPartly cloudy.3 mph94%29.98 "HgN/A
5:50 AM59 °FPartly cloudy.3 mph94%29.98 "HgN/A
Weather by CustomWeather, © 2014

See weather overviewHow to use our weather pages